Regional Weather Roundup
Issued by NWS

Home | Current Version | Previous Version | Text Only | Print | Product List | Glossary On
Versions: 1 2 3 4 5 6 7 8 9 10 11 12 13 14 15 16 17 18 19 20 21 22 23 24 25 26 27 28 29 30 31 32 33 34 35 36 37 38 39 40 41 42 43 44 45 46 47 48 49
000
ASUS44 KBMX 021910
RWRAL

ALABAMA REGIONAL WEATHER ROUNDUP
NATIONAL WEATHER SERVICE BIRMINGHAM AL
200 PM CDT TUE SEP 02 2014

NOTE: "FAIR" INDICATES FEW OR NO CLOUDS BELOW 12,000 FEET
WITH NO SIGNIFICANT WEATHER AND/OR OBSTRUCTIONS TO VISIBILITY.

THE REMARK "TC" DENOTES TEMPERATURE IN DEGREES CELSIUS.

ALZ001>011-014-016>018-020-022000-
NORTH ALABAMA

CITY           SKY/WX    TMP DP  RH WIND       PRES   REMARKS
MUSCLE SHOALS  MOSUNNY   92  71  50 SW10G16   30.03F HX  98
HUNTSVILLE     PTSUNNY   91  69  48 S9        30.03F HX  96
DECATUR        MOSUNNY   92  70  48 S9        30.04F HX  97
HALEYVILLE     FAIR      89  74  61 SW8       30.08F HX  97
GADSDEN        MOSUNNY   93  66  40 S9        30.03F HX  96
$$

ALZ012-013-022-023-030>036-040>044-022000-
WEST CENTRAL ALABAMA

CITY           SKY/WX    TMP DP  RH WIND       PRES   REMARKS
TUSCALOOSA     SUNNY     93  69  45 S9        30.03F HX  98
$$

ALZ015-024>027-033>036-040>044-022000-
CENTRAL ALABAMA

CITY           SKY/WX    TMP DP  RH WIND       PRES   REMARKS
BIRMINGHAM     PTSUNNY   89  67  47 S7        30.07F HX  92
MONTGOMERY     SUNNY     94  70  45 CALM      30.03F HX 100
SHELBY CO ARPT SUNNY     93  67  42 VRB7      30.05F HX  96
MAXWELL AFB    MOSUNNY   94  70  46 VRB5      30.03F HX  99
GREENVILLE     FAIR      94  69  44 CALM      30.04F HX  99
$$

ALZ019-021-028-029-037-038-045>048-022000-
EAST CENTRAL ALABAMA

CITY           SKY/WX    TMP DP  RH WIND       PRES   REMARKS
ANNISTON       MOSUNNY   90  68  48 S7        30.05F HX  94
ALEXANDER CITY MOSUNNY   95  67  39 SW10      30.06F HX  98
AUBURN         SUNNY     91  64  40 S7        30.10F HX  93
$$

ALZ051>064-022000-
SOUTHWEST ALABAMA

CITY           SKY/WX    TMP DP  RH WIND       PRES   REMARKS
MOBILE         PTSUNNY   79  73  82 S12G21    30.07R HAZE
BROOKLEY FIELD PTSUNNY   86  76  71 S7        30.06S HX  96
EVERGREEN      MOSUNNY   92  69  47 S6        30.04F HX  97
$$

ALZ049-050-065>069-022000-
SOUTHEAST ALABAMA

CITY           SKY/WX    TMP DP  RH WIND       PRES   REMARKS
DOTHAN         MOSUNNY   96  64  34 VRB3      30.07F HX  98
OZARK          MOSUNNY   93  67  41 VRB1      30.04F HX  97
TROY           MOSUNNY   94  68  42 CALM      30.06F HX  98
EUFAULA        FAIR      95  70  44 CALM      30.02F HX 101
$$


USA.gov is the U.S. government's official web portal to all federal, state and local government web resources and services.